Weather in Metallploshchadka

Russia / Kemerovo Oblast     55°19′12″N   86°11′43″E
temp.,
°C
wind,
m/s
gust,
m/s
humid.,
%
clouds,
%
prec.,
mm/h
press.,
hPa
HPBL,
m
5 december, sun
sun501:00−8sw5119254 0.1 1031263
04:00−12ssw389552 0.0 1032112
07:00−12s3596100 0.0 103189
10:00−10s41095100 0.0 1029224
13:00−7s5119365 0.0 1027365
16:00−6s5119390 0.0 1025366
19:00−5s51194100 0.1 1024434
22:00−3s61292100 0.1 1023439
6 december, mon
mon601:00−2ssw6129294 0.1 1022494
04:00−2ssw5119271 0.0 1021415
07:00−2ssw5129175 0.0 1020406
10:00−2ssw5129292 0.0 1021425
13:00−2ssw51294100 0.1 1021470
16:00−2s499392 0.2 1020318
19:00−5s3994100 0.2 1020161
22:00−9sse369670 0.0 101979
7 december, tue
tue701:00−6s3992100 0.0 1017184
04:00−3s51196100 0.3 1015521
07:00−2s51297100 1.8 1013602
10:000sw51297100 1.6 1013834
13:00−1wsw61296100 2.1 10141035
16:00−3wsw61291100 0.6 1016751
19:00−5wsw61390100 0.8 1020580
22:00−9wnw499296 0.2 1025328
8 december, wed
wed801:00−14w3696100 0.3 103092
04:00−20wsw2210049 0.0 103438
07:00−23ssw2210052 0.0 103616
10:00−26ssw2210050 0.0 103824
13:00−20ssw23977 0.0 1037107
16:00−22s22995 0.0 103817
19:00−26ssw1110033 0.0 103910
22:00−26ssw22100100 0.0 104025
9 december, thu
thu901:00−23s2495100 0.0 104278
04:00−23s2494100 0.0 104388
07:00−26sse2397100 0.0 104540
10:00−27sse2498100 0.0 104666
13:00−21s48925 0.0 1045237
16:00−20s49925 0.0 1043194
19:00−20s41193100 0.0 1042265
22:00−17s51289100 0.0 1039432